This is the latest recevied weather packets stored in our database for station/object YREN. If no packets are shown the sender has not sent any weather packets the latest 10 day(s).
| Time | Temp. | Humidity | Pressure | Rain* | Wind** | Luminosity | Snow |
|---|---|---|---|---|---|---|---|
| 1788615304 | 8.33° C | 87% | 1020.4 hPa | 0 mm | - | - | - |
| 1788614404 | 9.44° C | 84% | 1020.3 hPa | 0 mm | - | - | - |
| 1788613504 | 9.44° C | 84% | 1020.3 hPa | 0 mm | - | - | - |
| 1788612605 | 9.44° C | 81% | 1020 hPa | 0 mm | - | - | - |
| 1788611704 | 9.44° C | 81% | 1020 hPa | 0 mm | - | - | - |
| 1788610804 | 10.56° C | 77% | 1019.7 hPa | 0 mm | - | - | - |
| 1788609904 | 10.56° C | 77% | 1019.7 hPa | 0 mm | - | - | - |
| 1788609004 | 11.11° C | 75% | 1019.2 hPa | 0 mm | - | - | - |
| 1788608104 | 11.11° C | 75% | 1019.2 hPa | 0 mm | - | - | - |
| 1788607204 | 11.67° C | 71% | 1019 hPa | 0 mm | - | - | - |
| 1788606304 | 11.67° C | 71% | 1019 hPa | 0 mm | - | - | - |
| 1788605404 | 12.22° C | 68% | 1018.6 hPa | 0 mm | - | - | - |
| 1788604505 | 12.22° C | 68% | 1018.6 hPa | 0 mm | - | - | - |
| 1788603604 | 12.78° C | 64% | 1018.2 hPa | 0 mm | - | - | - |
| 1788602704 | 12.78° C | 64% | 1018.2 hPa | 0 mm | - | - | - |
| 1788601804 | 13.33° C | 60% | 1017.6 hPa | 0 mm | - | - | - |
| 1788600904 | 13.33° C | 60% | 1017.6 hPa | 0 mm | - | - | - |
| 1788600004 | 14.44° C | 57% | 1017.1 hPa | 0 mm | - | - | - |
| 1788599104 | 14.44° C | 57% | 1017.1 hPa | 0 mm | - | - | - |
| 1788598204 | 15° C | 54% | 1016.4 hPa | 0 mm | - | - | - |
| 1788597304 | 15° C | 54% | 1016.4 hPa | 0 mm | - | - | - |
| 1788596404 | 15.56° C | 51% | 1015.7 hPa | 0 mm | - | - | - |
| 1788595504 | 15.56° C | 51% | 1015.7 hPa | 0 mm | - | - | - |
| 1788594604 | 16.67° C | 49% | 1015.2 hPa | 0 mm | - | - | - |
| 1788593704 | 16.67° C | 49% | 1015.2 hPa | 0 mm | - | - | - |
* Rain latest hour (hover to see other rain measurements)
** Current wind speed in m/s (hover to see current wind gust speed)